Regional Weather Roundup
Issued by NWS

Home | Current Version | Previous Version | Graphics & Text | Print | Product List | Glossary On
Versions: 1 2 3 4 5 6 7 8 9 10 11 12 13 14 15 16 17 18 19 20 21 22 23 24 25 26 27 28 29 30 31 32 33 34 35 36 37 38 39 40 41 42 43 44 45 46 47 48 49 50
000
ASUS43 KFSD 080310
RWRSD

WEATHER ROUNDUP FOR SOUTH DAKOTA
NATIONAL WEATHER SERVICE SIOUX FALLS SD
900 PM CST WED DEC 07 2016

NOTE: "FAIR" INDICATES FEW OR NO CLOUDS BELOW 12,000 FEET WITH NO
SIGNIFICANT WEATHER AND/OR OBSTRUCTIONS TO VISIBILITY.


SDZ001>005-009-010-012>017-080400-
NORTHWEST AND NORTH CENTRAL SOUTH DAKOTA

CITY           SKY/WX    TMP DP  RH WIND       PRES   REMARKS
BUFFALO          N/A      4  -4  69 NW22      30.39R WCI -18
FAITH            N/A      2  -4  76 NW23      30.44R WCI -21
MOBRIDGE       CLEAR      5  -4  66 NW29      30.40R WCI -19
$$

SDZ012>016-024>037-041>051-057-063-072>074-080400-
SOUTHWEST AND SOUTH CENTRAL SOUTH DAKOTA

CITY           SKY/WX    TMP DP  RH WIND       PRES   REMARKS
RAPID CTY ARPT CLEAR      1  -6  72 N9        30.44S WCI -14
PIERRE         MOCLDY     9   1  70 NW31G41   30.45S WCI -14
CUSTER         CLEAR     -1 -12  59 N3        30.23R
ELLSWORTH AFB  CLEAR      4  -5  64 N14       30.43R WCI -13
PHILIP         CLEAR      6  -3  66 NW21G28   30.50R WCI -14
PINE RIDGE     CLEAR     -2  -7  79 CALM      30.45R
SPEARFISH      FAIR       3  -6  66 W16       30.42R WCI -16
WINNER         FAIR      10   0  63 NW21G29   30.46R WCI  -9
$$

SDZ004>011-016>023-039-040-080400-
NORTHEAST SOUTH DAKOTA

CITY           SKY/WX    TMP DP  RH WIND       PRES   REMARKS
ABERDEEN       LGT SNOW   9   2  73 NW25G36   30.34S WCI -12
WATERTOWN      CLOUDY     6   1  80 W21G30    30.25R WCI -14
BROOKINGS      CLEAR      7   1  76 NW24G35   30.26R WCI -14
SISSETON         N/A     12   6  77 NW26G36   30.22R WCI  -8
$$

SDZ017-020-022-023-036>040-048>070-080400-
SOUTHEAST SOUTH DAKOTA

CITY           SKY/WX    TMP DP  RH WIND       PRES   REMARKS
SIOUX FALLS    PTCLDY    11   3  70 NW18G37   30.32R WCI  -7
HURON          MIX PCPN   8   4  83 NW21      30.40R FOG     WCI -12
CHAMBERLAIN    CLOUDY    11   3  71 NW22G29   30.45S WCI  -8
MITCHELL       CLEAR     10   2  69 NW22      30.43R WCI -10
YANKTON        CLEAR    N/A N/A N/A W23G32    30.39S
$$

ABBREVIATIONS USED IN REMARKS
   TC - TEMPERATURE IN CELSIUS
  WCI - WIND CHILL INDEX
   HX - HEAT INDEX
  VSB - VISIBILITY




USA.gov is the U.S. government's official web portal to all federal, state and local government web resources and services.